{"data":{"norad_id":53242,"epoch":"2026-09-19T18:06:48.757536Z","epoch_age_seconds":139790,"freshness":"FRESH","line1":"1 53242U 22086A   26262.75473099  .00000549  00000+0  27374-4 0  9990","line2":"2 53242  53.1602  39.2089 0001018  81.0652 279.0466 15.34387644230721","mean_motion":15.34387644,"eccentricity":0.0001018,"inclination_deg":53.1602,"raan_deg":39.2089,"arg_perigee_deg":81.0652,"mean_anomaly_deg":279.0466,"bstar":2.7374e-5,"rev_number":23072,"period_min":93.848513811416,"perigee_km":462.04356381441,"apogee_km":463.4363663645,"semimajor_km":6840.8769650895,"source":"CELESTRAK","updated_at":"2026-09-20T09:00:40.197539Z"}}